Location: Drocourt
(49.0571°N, 1.7669°E)
Time: 00:55:53
(UTC+00:00)

USA 215 - Pass Details

Date: 09 February 2023
Orbit: 1100 x 1107 km, 123.0° (Epoch: 18 March)

Event Time Altitude Azimuth Distance (km) Brightness Sun altitude
Rises 17:24:30 0° 112° (ESE) 3,916 5.7 -4.2°
Reaches altitude 10° 17:26:59 10° 111° (ESE) 2,959 5.1 -4.6°
Maximum altitude 17:33:30 75° 28° (NNE) 1,141 3.3 -5.6°
Drops below altitude 10° 17:40:01 10° 304° (NW) 2,964 6.2 -6.6°
Sets 17:42:30 0° 303° (WNW) 3,923 6.9 -7.0°
